Location: Unspecified
(0.0000°N, 0.0000°E)
Time: 10:49:09
(UTC+00:00)

A-11 Canister half - Visible Passes

Search period start: 25 April 2018 00:00
Search period end: 05 May 2018 00:00
Orbit: 1517 x 1683 km, 47.2° (Epoch: 24 April)

Date Brightness Start Highest point End Pass type
(mag) Time Alt. Az. Time Alt. Az. Time Alt. Az.
25 Apr 9.5 03:00:43 47° NNE 03:00:43 47° NNE 03:06:53 10° NE visible
25 Apr 10.5 04:58:57 10° WNW 05:02:47 13° NW 05:06:46 10° NNW visible
26 Apr 10.0 02:39:22 35° NNE 02:39:22 35° NNE 02:44:01 10° NE visible
26 Apr 10.4 04:37:35 14° WNW 04:39:48 15° NW 04:44:34 10° NNW visible
27 Apr 10.5 02:17:57 25° NE 02:17:57 25° NE 02:21:07 10° NE visible
27 Apr 10.3 04:16:10 16° NW 04:16:50 17° NW 04:22:14 10° N visible
28 Apr 10.8 01:56:28 17° NE 01:56:28 17° NE 01:58:14 10° NE visible
28 Apr 10.3 03:54:40 18° NW 03:54:40 18° NW 03:59:49 10° N visible
29 Apr 11.2 01:34:55 12° NE 01:34:55 12° NE 01:35:19 10° NE visible
29 Apr 10.4 03:33:07 19° NNW 03:33:07 19° NNW 03:37:20 10° N visible
30 Apr 10.5 03:11:31 18° NNW 03:11:31 18° NNW 03:14:48 10° N visible
01 May 10.7 02:49:51 17° N 02:49:51 17° N 02:52:14 10° N visible
02 May 10.9 02:28:07 14° N 02:28:07 14° N 02:29:37 10° N visible
03 May 11.0 02:06:21 12° N 02:06:21 12° N 02:06:59 10° N visible
